TimeAKST,TemperatureF,Dew PointF,Humidity,Sea Level PressureIn,VisibilityMPH,Wind Direction,Wind SpeedMPH,Gust SpeedMPH,PrecipitationIn,Events,Conditions,WindDirDegrees,DateUTC
12:53 AM,15.1,-6.0,39,30.28,10.0,NNE,13.8,26.5,N/A,,Mostly Cloudy,30,2013-12-01 09:53:00
1:53 AM,15.1,-6.0,39,30.29,10.0,NNE,18.4,27.6,N/A,,Mostly Cloudy,30,2013-12-01 10:53:00
3:53 AM,15.1,-8.0,36,30.32,10.0,NNE,18.4,26.5,N/A,,Scattered Clouds,20,2013-12-01 12:53:00
4:53 AM,14.0,-8.0,37,30.35,10.0,NNE,15.0,25.3,N/A,,Clear,30,2013-12-01 13:53:00
5:53 AM,14.0,-9.0,35,30.38,10.0,NNE,16.1,33.4,N/A,,Clear,20,2013-12-01 14:53:00
6:53 AM,12.9,-9.9,35,30.40,10.0,NNE,16.1,28.8,N/A,,Clear,30,2013-12-01 15:53:00
7:53 AM,12.9,-9.9,35,30.42,10.0,NNE,15.0,31.1,N/A,,Clear,30,2013-12-01 16:53:00
8:53 AM,12.9,-9.9,35,30.44,10.0,NNE,13.8,24.2,N/A,,Partly Cloudy,30,2013-12-01 17:53:00
9:53 AM,12.9,-9.0,37,30.46,10.0,NNE,18.4,27.6,N/A,,Mostly Cloudy,20,2013-12-01 18:53:00
10:53 AM,12.9,-8.0,39,30.49,10.0,NNE,15.0,32.2,N/A,,Mostly Cloudy,20,2013-12-01 19:53:00
11:53 AM,12.9,-8.0,39,30.49,10.0,NNE,23.0,40.3,N/A,,Scattered Clouds,20,2013-12-01 20:53:00
12:53 PM,14.0,-5.1,43,30.51,10.0,NNE,23.0,34.5,N/A,,Overcast,30,2013-12-01 21:53:00
1:53 PM,14.0,-8.0,37,30.52,10.0,NNE,24.2,35.7,N/A,,Overcast,30,2013-12-01 22:53:00
2:53 PM,14.0,-8.0,37,30.54,10.0,NNE,26.5,44.9,N/A,,Overcast,30,2013-12-01 23:53:00
3:53 PM,14.0,-8.0,37,30.56,10.0,NNE,27.6,35.7,N/A,,Overcast,30,2013-12-02 00:53:00
4:53 PM,15.1,-8.0,36,30.58,10.0,NNE,21.9,34.5,N/A,,Overcast,30,2013-12-02 01:53:00
5:53 PM,15.1,-8.0,36,30.63,10.0,North,15.0,35.7,N/A,,Overcast,10,2013-12-02 02:53:00
6:53 PM,15.1,-8.0,36,30.65,10.0,NNE,12.7,34.5,N/A,,Clear,20,2013-12-02 03:53:00
7:53 PM,16.0,-7.1,36,30.65,10.0,NNE,18.4,31.1,N/A,,Clear,20,2013-12-02 04:53:00
8:53 PM,17.1,-7.1,34,30.67,10.0,NNE,16.1,27.6,N/A,,Clear,20,2013-12-02 05:53:00
9:53 PM,18.0,-7.1,33,30.67,10.0,NNE,24.2,36.8,N/A,,Clear,20,2013-12-02 06:53:00
10:53 PM,18.0,-7.1,33,30.68,10.0,NNE,21.9,42.6,N/A,,Clear,20,2013-12-02 07:53:00
11:53 PM,18.0,-5.1,36,30.71,10.0,NNE,23.0,38.0,N/A,,Clear,30,2013-12-02 08:53:00